Location: Ariel
(45.9570°N, 122.5700°W)
Time: 03:05:17
(UTC-07:00)

SR - Visible Passes

Search period start: 07 August 2020 00:00
Search period end: 17 August 2020 00:00
Orbit: 584 x 871 km, 66.7° (Epoch: 06 August)

Date Brightness Start Highest point End Pass type
(mag) Time Alt. Az. Time Alt. Az. Time Alt. Az.
07 Aug ? 01:00:39 17° W 01:02:36 23° NW 01:06:06 10° N visible
07 Aug ? 22:32:05 22° E 22:32:05 22° E 22:34:27 10° ENE visible
08 Aug ? 00:11:25 33° W 00:12:40 41° NW 00:16:48 10° NNE visible
08 Aug ? 21:42:37 11° E 21:42:37 11° E 21:43:10 10° E visible
08 Aug ? 23:21:56 55° SW 23:22:54 82° WNW 23:27:15 10° NNE visible
09 Aug ? 01:03:05 10° WNW 01:05:34 15° NW 01:08:01 10° N visible
09 Aug ? 22:32:00 37° SSE 22:33:16 48° ESE 22:37:27 10° NE visible
10 Aug ? 00:11:48 10° W 00:15:28 24° NW 00:19:01 10° N visible
10 Aug ? 05:26:15 10° N 05:28:05 12° NE 05:29:56 10° ENE visible
10 Aug ? 21:40:57 14° SSE 21:43:46 23° ESE 21:47:15 10° ENE visible
10 Aug ? 23:21:14 10° SW 23:25:33 43° NW 23:29:42 10° NNE visible
11 Aug ? 22:31:13 10° SSW 22:35:47 87° WNW 22:40:08 10° NNE visible
12 Aug ? 00:15:49 10° WNW 00:18:25 15° NW 00:20:59 10° N visible
12 Aug ? 05:27:57 10° N 05:31:07 19° NE 05:34:19 10° E visible
12 Aug ? 21:41:49 10° S 21:46:10 44° ESE 21:50:19 10° NE visible
12 Aug ? 23:24:36 10° WSW 23:28:20 25° NW 23:31:57 10° NNE visible
13 Aug ? 04:39:17 10° N 04:40:55 12° NNE 04:42:35 10° NE visible
13 Aug ? 20:53:12 10° SSE 20:56:41 22° ESE 21:00:02 10° ENE visible
13 Aug ? 22:34:05 10° SW 22:38:26 46° NW 22:42:36 10° NNE visible
14 Aug ? 05:30:05 10° NNW 05:33:58 31° NE 05:38:01 10° ESE visible
14 Aug ? 21:44:08 10° SSW 21:48:41 87° ESE 21:53:01 10° NNE visible
14 Aug ? 23:28:33 10° WNW 23:31:16 16° NW 23:33:57 10° N visible
15 Aug ? 04:40:54 10° N 04:43:57 18° NE 04:47:06 10° E visible
15 Aug ? 20:54:48 10° S 20:59:04 41° ESE 21:03:09 10° NE visible
15 Aug ? 22:37:25 10° WSW 22:41:11 27° NW 22:44:52 10° NNE visible
16 Aug ? 03:52:19 10° NNE 03:53:46 11° NNE 03:55:13 10° NE visible
16 Aug ? 05:32:25 10° NNW 05:36:42 56° NE 05:41:12 10° SE visible
16 Aug ? 21:46:56 10° SW 21:51:18 49° NW 21:55:30 10° NNE visible
16 Aug ? 23:33:43 10° NW 23:34:20 10° NNW 23:34:58 10° NNW visible
